Location: Staunton
(38.1490°N, 79.0720°W)
Time: 14:25:21
(UTC-04:00)

ISS - Pass Details

Date: 23 May 2017
Orbit: 402 x 408 km, 51.6° (Epoch: 29 May)

Event Time Altitude Azimuth Distance (km) Brightness Sun altitude
Rises 04:37:18 0° 315° (NW) 2,325 0.0 -14.2°
Reaches altitude 10° 04:39:31 10° 326° (NW) 1,462 -0.9 -13.8°
Maximum altitude 04:42:32 33° 32° (NNE) 701 -1.9 -13.4°
Drops below altitude 10° 04:45:31 10° 99° (E) 1,452 -0.4 -12.9°
Sets 04:47:43 0° 109° (ESE) 2,307 0.5 -12.6°
